Location: Scarborough
(43.7500°N, 79.2000°W)
Time: 13:46:31
(UTC-04:00)

Envisat - Visible Passes

Search period start: 23 July 2018 00:00
Search period end: 02 August 2018 00:00
Orbit: 764 x 766 km, 98.2° (Epoch: 22 July)

Date Brightness Start Highest point End Pass type
(mag) Time Alt. Az. Time Alt. Az. Time Alt. Az.
24 Jul 5.9 22:03:46 10° WSW 22:05:25 11° W 22:07:03 10° WNW visible
25 Jul 5.2 21:24:05 10° SSW 21:28:16 25° W 21:32:28 10° NW visible
27 Jul 5.7 21:51:18 10° WSW 21:54:06 15° W 21:56:55 10° NW visible
28 Jul 4.9 21:12:31 10° SSW 21:17:01 32° W 21:21:33 10° NNW visible
30 Jul 5.6 21:39:18 10° SW 21:42:49 19° W 21:46:20 10° NW visible
01 Aug 6.1 22:08:03 10° W 22:08:42 10° W 22:09:22 10° W visible
